GW5679 Weather Reports


time (UTC)temp
C
wind
direction
speed
KPH
gust
KPH
rain 1hr
cm
rain 24hr
cm
rain mn
cm
humidity
%
barometer
mb
20260504070333 18 176 1.6 6.4 0.00 0.00 0.00 63 1016.4
20260504050721 18 164 4.8 6.4 0.00 0.00 0.00 63 1017.3
20260504050218 18 168 3.2 6.4 0.00 0.00 0.00 62 1017.1
20260504045715 18 157 6.4 11.3 0.00 0.00 0.00 62 1017.3
20260504045215 18 138 4.8 11.3 0.00 0.00 0.00 61 1017.4
20260504044713 18 166 3.2 6.4 0.00 0.00 0.00 61 1017.4
20260504044210 18 189 6.4 6.4 0.00 0.00 0.00 60 1017.5
20260504043707 19 200 3.2 4.8 0.00 0.00 0.00 60 1017.6
20260504043204 19 180 3.2 4.8 0.00 0.00 0.00 59 1017.3
20260504042702 19 165 4.8 6.4 0.00 0.00 0.00 59 1017.6
20260504042158 19 188 6.4 6.4 0.00 0.00 0.00 59 1017.4
20260504041654 19 195 8.0 9.7 0.00 0.00 0.00 58 1017.6
20260504041150 19 166 4.8 9.7 0.00 0.00 0.00 58 1017.5
20260504040647 19 147 6.4 6.4 0.00 0.00 0.00 58 1017.3
20260504040144 20 186 3.2 4.8 0.00 0.00 0.00 58 1017.4
20260504035641 20 194 4.8 9.7 0.00 0.00 0.00 57 1017.4
20260504035137 20 177 3.2 4.8 0.00 0.00 0.00 58 1017.3
20260504034635 20 164 4.8 9.7 0.00 0.00 0.00 57 1017.4
20260504034132 20 164 6.4 9.7 0.00 0.00 0.00 57 1017.8
20260504033629 20 169 1.6 6.4 0.00 0.00 0.00 57 1017.5
20260504033127 20 150 3.2 9.7 0.00 0.00 0.00 56 1017.5
20260504032624 20 189 8.0 11.3 0.00 0.00 0.00 56 1017.4
20260504032121 20 157 6.4 11.3 0.00 0.00 0.00 56 1017.4
20260504031618 20 214 4.8 9.7 0.00 0.00 0.00 55 1017.4
20260504031114 20 195 8.0 12.9 0.00 0.00 0.00 55 1017.6
20260504030611 21 179 4.8 9.7 0.00 0.00 0.00 53 1017.3
20260504030108 21 165 8.0 14.5 0.00 0.00 0.00 52 1017.2
20260504025604 21 155 3.2 11.3 0.00 0.00 0.00 52 1017.2
20260504025101 21 143 6.4 12.9 0.00 0.00 0.00 52 1017.1
20260504024558 21 150 4.8 12.9 0.00 0.00 0.00 52 1017.2
20260504024055 21 163 8.0 9.7 0.00 0.00 0.00 52 1017.2
20260504023552 21 123 6.4 11.3 0.00 0.00 0.00 51 1017.1
20260504023048 21 153 4.8 9.7 0.00 0.00 0.00 51 1017.2
20260504022543 21 143 4.8 6.4 0.00 0.00 0.00 51 1017.2
20260504022040 21 150 12.9 14.5 0.00 0.00 0.00 50 1017.0
20260504021538 21 135 6.4 16.1 0.00 0.00 0.00 50 1016.9
20260504021034 21 130 4.8 12.9 0.00 0.00 0.00 50 1016.8
20260504020531 21 157 9.7 12.9 0.00 0.00 0.00 50 1017.1
20260504020028 21 156 14.5 22.5 0.00 0.00 0.00 49 1016.9
20260504015524 22 155 9.7 12.9 0.00 0.00 0.00 49 1017.1
20260504015020 22 179 9.7 16.1 0.00 0.00 0.00 48 1017.1
20260504014516 22 165 9.7 12.9 0.00 0.00 0.00 48 1016.9
20260504014014 22 153 11.3 16.1 0.00 0.00 0.00 47 1017.0
20260504013512 22 196 8.0 22.5 0.00 0.00 0.00 47 1016.9
20260504013009 22 146 3.2 12.9 0.00 0.00 0.00 46 1016.9
20260504012506 22 178 9.7 17.7 0.00 0.00 0.00 46 1016.9
20260504012004 22 127 8.0 11.3 0.00 0.00 0.00 45 1016.7
20260504011500 22 164 6.4 14.5 0.00 0.00 0.00 45 1016.7
20260504010955 22 127 12.9 20.9 0.00 0.00 0.00 44 1016.8
20260504010452 22 182 8.0 20.9 0.00 0.00 0.00 44 1016.9
20260504005948 23 150 11.3 16.1 0.00 0.00 0.00 44 1016.8
20260504005445 23 212 9.7 12.9 0.00 0.00 0.00 44 1016.7
20260504004943 23 179 16.1 20.9 0.00 0.00 0.00 43 1016.8
20260504004440 23 194 11.3 16.1 0.00 0.00 0.00 43 1016.7
20260504003937 23 133 14.5 17.7 0.00 0.00 0.00 42 1016.8
20260504003433 23 170 9.7 20.9 0.00 0.00 0.00 42 1016.7
20260504002930 23 182 9.7 16.1 0.00 0.00 0.00 41 1016.6
20260504002427 23 112 4.8 11.3 0.00 0.00 0.00 41 1016.6
20260504001924 24 143 8.0 14.5 0.00 0.00 0.00 40 1016.7
20260504001422 24 144 9.7 16.1 0.00 0.00 0.00 40 1016.6
20260504000918 25 152 4.8 14.5 0.00 0.00 0.00 40 1016.7
20260504000416 25 157 6.4 12.9 0.00 0.00 0.00 39 1016.6
20260503235913 25 148 16.1 17.7 0.00 0.00 0.00 39 1016.6
20260503235410 25 160 8.0 12.9 0.00 0.00 0.00 39 1016.8
20260503234908 25 173 8.0 14.5 0.00 0.00 0.00 38 1016.7
20260503234405 25 159 11.3 16.1 0.00 0.00 0.00 39 1016.6
20260503233903 25 158 12.9 24.1 0.00 0.00 0.00 38 1016.8
20260503233359 25 178 12.9 17.7 0.00 0.00 0.00 38 1017.0
20260503232855 25 228 9.7 17.7 0.00 0.00 0.00 39 1016.9
20260503232353 25 217 9.7 20.9 0.00 0.00 0.00 38 1016.9
20260503231850 25 185 19.3 22.5 0.00 0.00 0.00 37 1016.9
20260503231347 25 160 16.1 20.9 0.00 0.00 0.00 36 1017.0
20260503230843 25 151 11.3 14.5 0.00 0.00 0.00 37 1017.0
20260503230340 25 209 12.9 20.9 0.00 0.00 0.00 37 1016.8
20260503225838 25 191 8.0 17.7 0.00 0.00 0.00 37 1017.0
20260503225334 26 187 9.7 14.5 0.00 0.00 0.00 36 1017.2
20260503224830 26 178 6.4 11.3 0.00 0.00 0.00 36 1017.1
20260503224328 26 130 14.5 16.1 0.00 0.00 0.00 35 1017.0
20260503223825 27 165 14.5 24.1 0.00 0.00 0.00 34 1017.0
20260503223323 27 138 6.4 12.9 0.00 0.00 0.00 33 1017.1
20260503222818 26 210 6.4 9.7 0.00 0.00 0.00 31 1017.3
20260503222317 27 150 8.0 12.9 0.00 0.00 0.00 30 1017.3
20260503221815 26 128 3.2 11.3 0.00 0.00 0.00 30 1017.4
20260503221313 27 124 3.2 16.1 0.00 0.00 0.00 29 1017.5
20260503220809 27 136 1.6 6.4 0.00 0.00 0.00 30 1017.5
20260503220306 26 204 8.0 12.9 0.00 0.00 0.00 29 1017.5
20260503215802 27 173 17.7 20.9 0.00 0.00 0.00 29 1017.7
20260503215259 27 126 14.5 17.7 0.00 0.00 0.00 29 1017.4
20260503214757 27 151 4.8 6.4 0.00 0.00 0.00 28 1017.5
20260503214254 27 195 3.2 4.8 0.00 0.00 0.00 30 1017.6
20260503213752 28 137 6.4 6.4 0.00 0.00 0.00 28 1017.8
20260503213249 27 203 0.0 3.2 0.00 0.00 0.00 29 1017.8
20260503212746 26 153 6.4 12.9 0.00 0.00 0.00 29 1018.0
20260503212244 27 178 3.2 11.3 0.00 0.00 0.00 29 1017.8
20260503211741 27 208 6.4 14.5 0.00 0.00 0.00 29 1018.2
20260503211237 27 199 6.4 14.5 0.00 0.00 0.00 29 1018.3
20260503210732 27 136 4.8 11.3 0.00 0.00 0.00 30 1018.4
20260503210230 27 186 6.4 9.7 0.00 0.00 0.00 30 1018.2
20260503205725 27 197 4.8 12.9 0.00 0.00 0.00 30 1018.3
20260503205222 28 171 6.4 9.7 0.00 0.00 0.00 29 1018.1
20260503204718 27 143 3.2 6.4 0.00 0.00 0.00 29 1018.3
20260503204216 27 120 8.0 12.9 0.00 0.00 0.00 30 1018.4
20260503203713 28 231 3.2 11.3 0.00 0.00 0.00 29 1018.4
20260503203211 28 97 3.2 4.8 0.00 0.00 0.00 29 1018.6
20260503202708 27 179 4.8 4.8 0.00 0.00 0.00 30 1018.6
20260503202206 27 167 4.8 12.9 0.00 0.00 0.00 30 1018.9
20260503201703 28 156 8.0 12.9 0.00 0.00 0.00 30 1018.8
20260503201200 28 161 4.8 9.7 0.00 0.00 0.00 30 1018.9
20260503200656 27 144 4.8 4.8 0.00 0.00 0.00 30 1019.1
20260503200153 27 146 6.4 20.9 0.00 0.00 0.00 30 1019.2
20260503195650 28 192 4.8 11.3 0.00 0.00 0.00 29 1019.0
20260503195147 27 236 3.2 6.4 0.00 0.00 0.00 31 1019.4
20260503194644 27 183 6.4 14.5 0.00 0.00 0.00 29 1019.3
20260503194139 27 113 6.4 12.9 0.00 0.00 0.00 30 1019.4
20260503193637 27 185 11.3 16.1 0.00 0.00 0.00 29 1019.3
20260503193132 27 164 8.0 12.9 0.00 0.00 0.00 29 1019.3
20260503192628 27 219 3.2 17.7 0.00 0.00 0.00 29 1019.5
20260503192124 27 150 8.0 14.5 0.00 0.00 0.00 30 1019.6
20260503191621 27 113 8.0 9.7 0.00 0.00 0.00 30 1019.9
20260503191118 27 114 8.0 14.5 0.00 0.00 0.00 30 1020.0
20260503190615 27 196 12.9 14.5 0.00 0.00 0.00 29 1019.8
20260503190112 27 210 12.9 14.5 0.00 0.00 0.00 29 1019.8
20260503185608 27 181 4.8 12.9 0.00 0.00 0.00 29 1020.2
20260503185108 28 231 6.4 14.5 0.00 0.00 0.00 29 1019.9
20260503184604 28 15 4.8 9.7 0.00 0.00 0.00 28 1020.1
20260503184100 28 167 3.2 9.7 0.00 0.00 0.00 29 1020.4
20260503183557 28 142 3.2 6.4 0.00 0.00 0.00 28 1020.4
20260503183054 28 175 0.0 11.3 0.00 0.00 0.00 30 1020.4
20260503182553 27 161 1.6 4.8 0.00 0.00 0.00 30 1020.5
20260503182050 28 173 3.2 9.7 0.00 0.00 0.00 30 1020.5
20260503181547 27 169 1.6 3.2 0.00 0.00 0.00 31 1020.5
20260503181043 27 42 6.4 11.3 0.00 0.00 0.00 30 1020.6
20260503180541 27 131 3.2 3.2 0.00 0.00 0.00 31 1020.7
20260503180038 27 168 3.2 6.4 0.00 0.00 0.00 31 1020.8
20260503175535 27 113 4.8 6.4 0.00 0.00 0.00 32 1021.0
20260503175033 27 132 3.2 12.9 0.00 0.00 0.00 32 1021.0
20260503174530 27 157 1.6 9.7 0.00 0.00 0.00 32 1021.2
20260503174026 27 123 8.0 11.3 0.00 0.00 0.00 30 1021.2
20260503173521 27 134 4.8 6.4 0.00 0.00 0.00 32 1021.3
20260503173017 27 135 3.2 9.7 0.00 0.00 0.00 31 1021.2
20260503172515 26 137 0.0 3.2 0.00 0.00 0.00 33 1021.4
20260503172012 26 348 6.4 9.7 0.00 0.00 0.00 33 1021.6
20260503171509 26 112 0.0 4.8 0.00 0.00 0.00 32 1021.7
20260503171006 26 140 4.8 9.7 0.00 0.00 0.00 32 1021.7
20260503170502 26 119 4.8 6.4 0.00 0.00 0.00 33 1021.6
20260503150855 25 157 8.0 9.7 0.00 0.00 0.00 39 1021.8
20260503150351 24 129 0.0 3.2 0.00 0.00 0.00 40 1021.7
20260503140315 22 148 3.2 3.2 0.00 0.00 0.00 53 1021.4
20260503131244 20 170 0.0 0.0 0.00 0.00 0.00 65 1021.4
20260503130742 19 132 0.0 0.0 0.00 0.00 0.00 69 1021.1
20260503130239 18 178 0.0 0.0 0.00 0.00 0.00 72 1021.3
20260503120205 13 181 0.0 0.0 0.00 0.00 0.00 86 1020.6
20260503110632 15 183 0.0 0.0 0.00 0.00 0.00 84 1020.1
20260503110130 14 174 0.0 0.0 0.00 0.00 0.00 84 1020.1
20260503081446 15 166 0.0 0.0 0.00 0.00 0.00 77 1019.9
20260503080943 15 167 0.0 0.0 0.00 0.00 0.00 76 1019.8
20260503080439 16 169 0.0 0.0 0.00 0.00 0.00 76 1019.8